Regional Weather Roundup
Issued by NWS

Home | Current Version | Previous Version | Text Only | Print | Product List | Glossary Off
Versions: 1 2 3 4 5 6 7 8 9 10 11 12 13 14 15 16 17 18 19 20 21 22 23 24 25 26 27 28 29 30 31 32 33 34 35 36 37 38 39 40 41 42 43 44 45 46 47 48 49 50

626
ASUS45 KBOU 170610
RWRCO

WEATHER ROUNDUP FOR COLORADO
NATIONAL WEATHER SERVICE DENVER/BOULDER CO
1100 PM MST TUE JAN 16 2018

NOTE: "FAIR" INDICATES FEW OR NO CLOUDS BELOW 12000 FEET WITH NO
SIGNIFICANT WEATHER AND/OR OBSTRUCTIONS TO VISIBILITY.

COZ001>005-013-030-031-170700-
...NORTHWEST COLORADO...

CITY           SKY/WX    TMP DP  RH WIND       PRES   REMARKS
CRAIG          FAIR       6   0  76 CALM      30.37R
HAYDEN         FAIR      13   2  61 E12       30.36R WCI  -1
MEEKER         FAIR      19  10  68 E5        30.36R WCI  12
RABBIT EARS PA FAIR      14   7  73 W10G16    30.30S WCI   1
STEAMBOAT SPGS FAIR       4   0  83 CALM      30.37R
WALDEN         FAIR       1  -8  66 SE9       30.32S WCI -14
$$

COZ006>008-011-170700-
...WEST CENTRAL VALLEYS...

CITY           SKY/WX    TMP DP  RH WIND       PRES   REMARKS
GRAND JUNCTION FAIR      24  14  65 SE5       30.38R WCI  18
MONTROSE       FAIR      20  13  74 S10       30.41R WCI   9
EAGLE          FAIR      10   3  73 E8        30.43R WCI  -2
RIFLE          FAIR      20  13  74 SW5       30.40R WCI  13
DELTA          FAIR      24  14  65 E5        30.40S WCI  18
NUCLA          FAIR      25  12  58 SE9       30.40S WCI  15
$$

COZ017>023-064>068-170700-
...SOUTHWEST COLORADO...

CITY           SKY/WX    TMP DP  RH WIND       PRES   REMARKS
DURANGO        FAIR      21  17  84 N6        30.35S WCI  13
CORTEZ         FAIR      19  16  88 E5        30.37R WCI  12
PAGOSA SPRINGS FAIR      20  18  91 CALM      30.36S
TELLURIDE      FAIR      20   2  45 SE5       30.37R WCI  14
WOLF CREEK PAS FAIR      21  -9  25 W3        30.39R
$$

COZ009-010-012-014-032>034-037-058>063-170700-
...CENTRAL COLORADO...

CITY           SKY/WX    TMP DP  RH WIND       PRES   REMARKS
ASPEN          FAIR      10  -1  61 CALM      30.34R
BUENA VISTA    FAIR       8  -1  66 W5        30.31R WCI  -1
COPPER MTN     NOT AVBL
BERTHOUD PASS  FAIR      14   3  62 NW20G30   30.29S WCI  -3
COTTONWOOD PAS   N/A     32 -15  12 W6        30.29R WCI  26
GUNNISON       FAIR       8   3  80 CALM      30.39R
KREMMLING      FAIR       5  -2  72 CALM      30.42R
LEADVILLE      FAIR      10 -10  40 NE10      30.29R WCI  -4
MONARCH PASS   FAIR      18  -8  32 W22       30.42R WCI   0
SALIDA         FAIR      18   9  68 CALM      30.38S
SUNLIGHT       FAIR      19 -24  13 W8        30.38S WCI   9
WILKERSON PASS FAIR      23 -22  13 N8        30.31R WCI  14
$$

COZ069>075-170700-
...SAN LUIS VALLEY/SANGRE DE CRISTO MOUNTAINS...

CITY           SKY/WX    TMP DP  RH WIND       PRES   REMARKS
ALAMOSA        FAIR       3  -2  79 W6        30.36R WCI  -8
DEL NORTE      FAIR       7   2  80 W8        30.36R WCI  -5
LA VETA PASS   FAIR      16  12  86 SW25        N/A  WCI  -3
SAGUACHE       FAIR      10   5  79 NW8       30.37R WCI  -1
$$

COZ035-036-038>040-170700-
...NORTHERN COLORADO FRONT RANGE...

CITY           SKY/WX    TMP DP  RH WIND       PRES   REMARKS
DENVER INTL AP FAIR      19   8  62 SW7       30.23S WCI  10
DMNS CITY PARK NOT AVBL
AURORA         CLEAR     20   4  49 S9        30.22F WCI   9
FRONT RANGE AP FAIR      22  10  61 SW5       30.23F WCI  16
ERIE MUNI ARPT FAIR      12   9  89 CALM      30.30F
BOULDER MUN AP FAIR      19  16  86 CALM      30.23S
CENTENNIAL     FAIR      18   5  57 S3        30.22S
BROOMFIELD     FAIR      23  10  58 CALM      30.22F
FORT COLLINS   FAIR      14   9  80 N6        30.25F WCI   5
LONGMONT       FAIR      13   8  81 NW3       30.27S
$$

COZ041-046-047-076>085-087-088-170700-
...PIKES PEAK/PALMER DIVIDE AND SOUTHERN FOOTHILLS...

CITY           SKY/WX    TMP DP  RH WIND       PRES   REMARKS
COLO. SPRINGS  FAIR      12   5  73 N7        30.27F WCI   1
A. F. ACADEMY  FAIR       8   0  72 N8        30.25F WCI  -5
SCHRIEVER AFB  FAIR      16  10  80 NW3       30.28F
CHEYENNE MTN   FAIR      21   5  49 CALM      30.18F
ELLICOTT         N/A    N/A N/A N/A N3          N/A
FALCON         FAIR      19   8  60 W9        30.26S WCI   8
FORT CARSON    FAIR      13   6  74 N7        30.26F WCI   2
LIMON          FAIR       6   2  83 SE7       30.27F WCI  -6
MONUMENT HILL  FAIR      19   7  58 S10       30.23F WCI   8
CANON CITY     FAIR      19  12  73 W3        30.31S
WALSENBURG     FAIR      18  12  79 CALM      30.28F
TRINIDAD       FAIR      24  17  74 W14       30.30F WCI  12
$$

COZ042>045-048>051-090-091-170700-
...NORTHEAST COLORADO...

CITY           SKY/WX    TMP DP  RH WIND       PRES   REMARKS
GREELEY ARPT   FAIR       6   1  80 W5        30.27F WCI  -3
AKRON          FAIR      19   6  57 SW12      30.25F WCI   7
BURLINGTON     FAIR      13   1  59 SW15      30.33F WCI  -3
WRAY           FAIR      18   1  49 SW13      30.32F WCI   4
YUMA           FAIR      10   1  67 SW8       30.28F WCI  -1
STERLING       FAIR      10   3  72 CALM      30.28S
HOLYOKE        FAIR       7   0  72 CALM      30.32F
FORT MORGAN    FAIR       9  -1  63 W7        30.26F WCI  -2
$$

COZ086-089-092>099-170700-
...SOUTHEAST COLORADO...

CITY           SKY/WX    TMP DP  RH WIND       PRES   REMARKS
PUEBLO         FAIR      10   5  80 W3        30.32F
LA JUNTA       FAIR       9  -1  64 NW5       30.35F WCI   1
LAMAR          FAIR       7  -4  60 NE5       30.37F WCI  -2
SPRINGFIELD      N/A     10   1  67 S12       30.35F WCI  -5
$$




USA.gov is the U.S. government's official web portal to all federal, state and local government web resources and services.